Погода в Белу-Оризонти

Бразилия     19°54′52″S   43°56′24″W
темп.,
°C
ветер,
м/с
пор.,
м/с
влажн.,
%
обл.,
%
осадки,
мм/ч
давл.,
гПа
погр.,
м
22 октября, пт
пт2200:00+15вюв23936 0.0 1015113
03:00+15в229418 0.0 101494
06:00+16вюв129230 0.0 101596
09:00+22ссв12697 0.4 1015703
12:00+25сз235234 0.9 10131711
15:00+25зсз135364 1.8 10111369
18:00+21юв116671 0.1 101264
21:00+20вюв22710 0.1 101491
23 октября, сб
сб2300:00+17в24830 0.0 1014135
03:00+16вюв24881 0.0 1013119
06:00+16в239118 0.0 1015159
09:00+22всв23600 0.0 1015688
12:00+27с34410 0.0 10132208
15:00+28ссз343674 0.0 10102561
18:00+22в24640 0.0 1011167
21:00+19в37801 0.0 1013305
24 октября, вс
вс2400:00+18в26871 0.0 1012248
03:00+17в258811 0.0 1012168
06:00+18всв2488100 0.0 1015163
09:00+24ссв376014 0.0 1015749
12:00+27ссз5856100 0.9 10131599
15:00+20з3119193 7.2 1012471
18:00+22всв1182100 1.0 101322
21:00+19вюв2392100 5.2 1017124
25 октября, пн
пн2500:00+19в1190100 0.0 101569
03:00+19вюв1189100 0.0 101422
06:00+19вюв1189100 0.4 101647
09:00+25св126632 0.7 1017692
12:00+26с126279 1.9 10161132
15:00+27с126235 5.0 10141105
18:00+23вюв228086 1.8 101444
21:00+20св4891100 6.3 1018349
26 октября, вт
вт2600:00+18всв3892100 5.0 1018334
03:00+19вюв1394100 5.5 1017123
06:00+19в2691100 0.1 1019364
09:00+20всв3782100 0.1 1020564
12:00+21всв1378100 0.1 1019444
15:00+21в2484100 0.6 1017354
18:00+20вюв2489100 0.3 1018179
21:00+19вюв2588100 0.3 1019189